Regional Weather Roundup
Issued by NWS Upton, NY

Current Version | Previous Version | Text Only | Print | Product List | Glossary On
Versions: 1 2 3 4 5 6 7 8 9 10 11 12 13 14 15 16 17 18 19 20 21 22 23 24 25 26 27 28 29 30 31 32 33 34 35 36 37 38 39 40 41 42 43 44 45 46 47 48 49 50
000 ASUS41 KOKX 271208 RWROKX REGIONAL WEATHER ROUNDUP NATIONAL WEATHER SERVICE NEW YORK NY 800 AM EDT MON MAR 27 2017 NOTE: "FAIR" INDICATES FEW OR NO CLOUDS BELOW 12,000 FEET WITH NO SIGNIFICANT WEATHER AND/OR OBSTRUCTIONS TO VISIBILITY. NYZ071-072-176-178-NJZ106-104-271300- NEW YORK CITY METRO AREA CITY SKY/WX TMP DP RH WIND PRES REMARKS Central Park LGT RAIN 39 38 96 VRB6 30.14F FOG WCI 35 Wall St Helipt LGT RAIN 40 39 97 NE12 30.13S FOG WCI 33 LaGuardia APRT LGT RAIN 40 38 93 NE13 30.12F VSB 1/4 WCI 32 Kennedy INTL DRZL/FOG 43 43 100 E9 30.13F VSB<1/4 Breezy Point N/A 39 N/A N/A E8 N/A WCI 34 Newark/Liberty DRZL/FOG 41 40 96 VRB5 30.12F VSB 1/4 Teterboro LGT RAIN 40 38 93 CALM 30.12F VSB 1 $$ NYZ177-179-078>081-271300- LONG ISLAND NEW YORK CITY SKY/WX TMP DP RH WIND PRES REMARKS Jones Beach N/A 41 N/A N/A E10 N/A Matinecock PT NOT AVBL Farmingdale LGT RAIN 42 42 100 E7 30.13F VSB 1/4 MacArthur/ISP DRZL/FOG 42 42 100 E9 30.12F VSB 1/8 Shirley FOG 42 42 100 VRB3 30.14F VSB 1/4 Westhampton FOG 41 40 96 E8 30.15S VSB 1/4 East Hampton FOG 40 40 98 E10 30.15F VSB 1/4 WCI 34 Montauk N/A 42 41 96 E9 30.16F $$ NYZ052-065-067-271300- HUDSON VALLEY CITY SKY/WX TMP DP RH WIND PRES REMARKS White Plains RAIN 37 36 96 E9 30.11F VSB 1/4 WCI 30 Newburgh LGT RAIN 37 37 100 E7 30.12S FOG WCI 32 Montgomery RAIN 36 35 96 N3 30.11R FOG Poughkeepsie RAIN 35 34 96 CALM 30.11F FOG Albany LGT RAIN 36 33 89 S9 30.11S FOG WCI 29 $$ NJZ001-105-106-008-010-013-015-019>022-104-271300- NEW JERSEY CITY SKY/WX TMP DP RH WIND PRES REMARKS Newark/Liberty DRZL/FOG 41 40 96 VRB5 30.12F VSB 1/4 Teterboro LGT RAIN 40 38 93 CALM 30.12F VSB 1 Caldwell LGT RAIN 38 37 97 CALM 30.12F FOG Somerville LGT RAIN 40 38 93 N3 30.10S FOG Linden DRZL/FOG 40 40 98 CALM 30.12F VSB 3/4 Sussex LGT RAIN 36 35 96 CALM 30.11S Andover N/A 37 35 92 CALM 30.11R Trenton LGT RAIN 41 41 100 E5 30.10S VSB 3/4 Millville CLOUDY 48 48 100 SE5 30.09F Atlantic City FOG 46 45 96 SE5 30.11S VSB 1/4 Wrightstown FOG 43 42 98 CALM 30.08S VSB 3/4 Toms River FOG 44 43 96 CALM 30.11F VSB<1/4 Belmar LGT RAIN 42 42 100 E5 30.12F VSB 1/4 $$ PAZ047>061-062-071-271300- EASTERN PENNSYLVANIA CITY SKY/WX TMP DP RH WIND PRES REMARKS Philadelphia LGT RAIN 44 43 96 NE3 30.11S VSB 1 Allentown CLOUDY 40 37 89 NE5 30.11S FOG Scranton CLOUDY 39 39 100 CALM 30.05F FOG $$ CTZ002-004>006-009-010-012-RIZ004-006-007-MAZ004-011-015-271300- SOUTHERN NEW ENGLAND IN CT CITY SKY/WX TMP DP RH WIND PRES REMARKS Bradley INTL CLOUDY 34 33 96 N6 30.17F FOG WCI 29 Hartford FOG 35 34 96 N5 30.17F VSB 3/4 WCI 31 Danbury RAIN 37 36 96 E6 30.13F FOG WCI 32 Wtrbury/Oxford LGT RAIN 34 30 86 CALM 30.14F VSB 1/4 Bridgeport FOG 40 37 89 E15 30.14F VSB 1/2 WCI 32 Meriden FOG 36 34 92 N3 30.16F VSB 3/4 New Haven FOG 39 38 96 E9 30.15F VSB 3/4 WCI 33 Chester NOT AVBL Groton FOG 40 39 97 E12 30.16F VSB 1 WCI 33 Wilimantic FOG 38 37 97 VRB3 30.18F VSB 1 IN RI CITY SKY/WX TMP DP RH WIND PRES REMARKS Providence DRZL/FOG 37 36 96 CALM 30.21F VSB 1 Block Island CLOUDY 41 40 96 E9 30.18F FOG Westerly FOG 41 40 96 E12 30.18F VSB 1 IN MA CITY SKY/WX TMP DP RH WIND PRES REMARKS Boston LGT RAIN 38 38 100 E13 30.22F VSB 1/2 WCI 30 Worcester FRZ RAIN 31 30 96 E8 30.16F VSB<1/4 WCI 23 Westfield LGT RAIN 33 33 100 N6 30.17F FOG WCI 28 Provincetown CLOUDY 41 39 93 SE14 30.22S Nantucket CLOUDY 42 39 89 E16 30.21F $$ ANZ330-335-338-340-345-350-353-355-271300- COASTAL MARINE OBSERVATIONS STATION/POSITION TIME SKY/WX TEMP WIND PRES VSBY WAVE AIR SEA DIR/SP/G HT/PER (UTC) (F) (DEG/KT/KT) (MB) (MI) (FT/S) NY HARB ENTRANCE 1050 41 42 70/ 12/ 14 1020.3 5/ 8 20 S FIRE ISLAND 1150 44 40 130/ 6/ 8 1019.6 5/ 6 GREAT SOUTH BAY NOT AVBL 23 SSW MONTAUK P 1050 42 42 1021.5 5/ 6 15 E BARNEGAT LI 1130 43 N/A 6/ 7 HUDSON CANYON 1050 46 44 130/ 8/ 8 1020.8 5/ 8 KINGS POINT 1142 38 39 1020.1 EXECUTION ROCKS NOT AVBL CENTRAL LI SOUND 1130 39 90/ 14/ 16 N/A 3/ 4 EASTERN LI SOUND NOT AVBL ROBBINS REEF 1142 40 60/ 5/ 7 1020.2 $$ >>>>>>>>>>>>>>>>>>>>>>>>>>>> KEY <<<<<<<<<<<<<<<<<<<<<<<<<<< > < > SKY/WX - Sky Condition/Present Weather < > TMP - Temperature in Fahrenheit < > DP - Dew Point in Fahrenheit < > RH - Relative Humidity in Percent < > WIND - Direction (from) and Speed in MPH < > PRES - Mean Sea Level Pressure (inches of Hg) < > WCI - Wind Chill Index < > VSB - VISIBILITY IN MILES < > HX - HEAT INDEX < > TC - TEMPERATURE IN CELSIUS < > VRB - VARIABLE WIND DIRECTION < > < >>>>>>>>>>>>>>>>>>>>>>>>>>>> KEY <<<<<<<<<<<<<<<<<<<<<<<<<<<

USA.gov is the U.S. government's official web portal to all federal, state and local government web resources and services.